Location: Bílinka
(49.3579°N, 14.3767°E)
Time: 00:28:15
(UTC+00:00)

Cosmos 1634 Rocket - Pass Details

Date: 28 January 2023
Orbit: 960 x 991 km, 82.9° (Epoch: 31 March)

Event Time Altitude Azimuth Distance (km) Brightness Sun altitude
Rises 16:44:08 0° 196° (SSW) 3,675 7.5 -8.7°
Reaches altitude 10° 16:46:40 10° 199° (SSW) 2,726 6.9 -9.1°
Maximum altitude 16:52:53 68° 282° (WNW) 1,051 4.4 -10.1°
Drops below altitude 10° 16:59:06 10° 5° (N) 2,723 6.1 -11.1°
Sets 17:01:38 0° 8° (N) 3,670 6.8 -11.5°
